Starlink 3679

operational
NORAD ID: 51973 Int'l Des: 2022-025 Owner: SPXS Country: US Constellation: starlink
LEOCIRCULARSTARLINK_TYPE

About Starlink 3679

Description loading...

Live Position

Loading 3D Globe...

Upcoming Passes

Altitude History

Altitude vs Time

uPlot chart will show altitude changes over time

Two-Line Element Set

1 51973U 22025T 26034.45922133 -.00004436 00000-0 -27892-3 0 9990
2 51973 53.0577 184.4942 0001255 87.5634 272.5499 15.06423268215768
Epoch: Feb 3, 2026 • Age: 16 hours

Current Status

Altitude 552.0 km
Velocity 7.59 km/s
Sub-Earth Point 49.50°N, 59.35°E
Launch Date Mar 9, 2022
Age 3.9 years
Type internet

Technical Details

Classification Payload
Mass 297.00 kg
Dry Mass 275.00 kg
Total Mass 297.00 kg
Length 0.20 m
Diameter 2.80 m
Span 9.00 m
Shape Box + pan
Manufacturer SPXS
Bus Type Starlink
Phase Status In Orbit
Owner/State SPXS/US

Large Constellations

Loading constellations...